[[{"header":{"parameterUnit":"m.s-1","parameterCategory":1,"la1":30.2991,"la2":30.254,"lo1":-89.0895,"lo2":-89.0444,"dy":0.0017,"dx":0.0017,"nx":28,"ny":28,"refTime":"2023-11-02T03:00:00:Z","depth":0,"parameterNumber":2,"parameterNumberName":"U-component_of_WINDS"},"data":[0,0,0,0,0,0,0,0,0,0,0,0,0,0,0,0,0,0,0,0,0,0,0,0,0,0,0,0,0,0,0,0,0,0,0,0,0,0,0,0,0,0,0,0,0,0,0,0,0,0,0,0,0,0,0,0,0,0,-4.8282,-4.8282,0,-4.8279,-4.8279,-4.8279,-4.8155,-4.8152,-4.8148,-4.8145,-4.8145,-4.8148,-4.8151,0,0,0,0,0,0,0,0,0,0,0,0,0,-4.8182,-4.8185,-4.8282,-4.8282,-4.8281,-4.8279,-4.8279,-4.8279,-4.8156,-4.8152,-4.8148,-4.8144,-4.8144,-4.8148,-4.8151,0,0,0,0,0,0,0,0,0,0,0,0,0,-4.8207,-4.8186,-4.8282,-4.822,-4.8214,-4.8279,-4.8279,-4.8279,-4.8156,-4.8151,-4.8147,-4.8142,-4.8143,-4.8147,-4.8152,-4.8277,0,0,-4.8166,-4.8167,0,0,0,0,0,0,0,0,-4.8206,-4.8211,-4.8229,-4.8224,-4.8218,-4.8212,-4.8244,-4.8278,-4.8158,-4.8178,-4.8145,-4.814,-4.8172,-4.8173,-4.8184,-4.8277,-4.8277,-4.8166,-4.8169,-4.8171,-4.8172,0,0,0,0,0,0,0,-4.8204,-4.8211,-4.828,-4.8229,-4.8223,-4.8193,-4.8191,-4.825,-4.8202,-4.8176,-4.8167,-4.8168,-4.8168,-4.818,-4.8183,-4.8277,-4.8166,-4.817,-4.8173,-4.8174,-4.8473,-4.8478,0,0,0,0,0,0,-4.8211,-4.821,-4.8281,-4.828,-4.82,-4.8199,-4.8196,-4.8219,-4.8201,-4.8194,-4.8173,-4.8163,-4.8174,-4.8178,-4.8182,-4.8328,-4.8171,-4.8175,-4.8177,-4.8468,-4.8474,-4.848,0,0,0,0,0,0,-4.8209,-4.8218,-4.8281,-4.8243,-4.8248,-4.8205,-4.8232,-4.8222,-4.8233,-4.8198,-4.819,-4.8193,-4.8171,-4.8176,-4.8254,-4.8326,-4.8177,-4.8181,-4.8462,-4.847,-4.8477,-4.862,0,0,0,0,0,0,-4.8207,-4.8219,-4.8265,-4.8245,-4.8251,-4.8352,-4.8236,-4.8225,-4.8241,-4.8228,-4.8216,-4.8209,-4.8167,-4.8248,-4.8259,-4.833,-4.8184,-4.8455,-4.8466,-4.8475,-4.8609,-4.8632,-4.8651,0,0,0,0,0,-4.8204,-4.8305,-4.8268,-4.8277,-4.8308,-4.8357,-4.836,-4.8309,-4.8247,-4.8294,-4.8272,-4.8209,-4.8317,-4.8257,-4.8268,-4.8341,-4.8451,-4.8463,-4.8474,-4.8599,-4.8627,-4.8651,0,0,0,0,0,0,-4.8335,-4.8301,-4.8259,-4.8357,-4.8361,-4.8335,-4.8392,-4.8341,-4.8362,-4.8349,-4.8286,-4.8285,-4.8373,-4.8365,-4.8299,-4.8462,-4.8373,-4.8387,-4.8464,-4.849,-4.8511,-4.8512,-4.8188,0,0,0,0,0,-4.8375,-4.8417,-4.8386,-4.8475,-4.8479,-4.8436,-4.8455,-4.8416,-4.8417,-4.8418,-4.8402,-4.8407,-4.8441,-4.8465,-4.8495,-4.8607,-4.8603,-4.8663,-4.8684,-4.8702,-4.8716,-4.8775,-4.8802,-4.8519,-4.8519,-4.8519,0,0,-4.8459,-4.8446,-4.8476,-4.8501,-4.8499,-4.8545,-4.8438,-4.849,-4.8524,-4.8426,-4.8499,-4.8488,-4.8489,-4.8585,-4.8626,-4.8581,-4.8793,-4.8717,-4.8732,-4.8735,-4.879,-4.8817,-4.8841,-4.8527,-4.8525,-4.8524,0,0,-4.8634,-4.8629,-4.8703,-4.8703,-4.8702,-4.8673,-4.8691,-4.8674,-4.8662,-4.8735,-4.8663,-4.8703,-4.8763,-4.8767,-4.8777,-4.8957,-4.8901,-4.8969,-4.908,-4.914,-4.9162,-4.9181,-4.9246,-4.927,-4.8982,-4.8982,-4.8983,0,-4.8739,-4.8804,-4.8747,-4.8805,-4.8819,-4.8733,-4.8808,-4.8812,-4.8821,-4.8833,-4.8781,-4.8857,-4.8851,-4.8948,-4.8992,-4.9002,-4.9022,-4.8969,-4.9163,-4.9182,-4.9199,-4.9261,-4.9285,-4.8991,-4.899,-4.8989,-4.8988,0,-4.8932,-4.8979,-4.9039,-4.905,-4.907,-4.9137,-4.9092,-4.9119,-4.9079,-4.9056,-4.9132,-4.9122,-4.915,-4.917,-4.9131,-4.9261,-4.9233,-4.9174,-4.9083,-4.9236,-4.9292,-4.9315,-4.9003,-4.9,-4.8997,-4.8995,0,0,-4.9189,-4.9169,-4.9192,-4.9196,-4.9189,-4.9224,-4.9288,-4.9314,-4.934,-4.9349,-4.9401,-4.9456,-4.9401,-4.9413,-4.9374,-4.9426,-4.957,-4.936,-4.9359,-4.94,-4.9715,-4.976,-4.9787,-4.9533,-4.9537,-4.954,-4.9715,0,-4.9359,-4.9465,-4.9417,-4.9529,-4.9572,-4.9492,-4.9547,-4.955,-4.953,-4.9565,-4.9544,-4.9584,-4.9508,-4.9515,-4.9563,-4.9542,-4.9632,-4.9529,-4.9582,-4.9584,-4.9584,-4.9817,-4.9864,-5.0029,-4.9736,-4.974,-4.9743,0,-4.9572,-4.959,-4.9706,-4.9692,-4.9709,-4.9759,-4.978,-4.9814,-4.9816,-4.9798,-4.9813,-4.9762,-4.9825,-4.9735,-4.9821,-4.9752,-4.9771,-4.9765,-4.977,-4.9772,-4.9673,-4.9826,-5.008,-5.0105,-4.9777,-4.9774,-4.9772,0,-4.9748,-4.9802,-4.9878,-4.9885,-4.9871,-4.9908,-4.9904,-4.9901,-4.9921,-4.994,-4.9952,-4.9978,-4.9993,-5.0015,-4.9974,-4.9912,-5.0066,-4.9972,-5.0054,-5.0056,-5.009,-5.0088,-5.0351,-5.0103,-5.0102,-5.0102,-5.0101,0,-4.9943,-5.0017,-4.9958,-5.0005,-5.0086,-5.0031,-5.0114,-5.0101,-5.01,-5.0144,-5.0077,-5.012,-5.0063,-5.0101,-5.0069,-5.0146,-5.0153,-5.0142,-5.0132,-5.0148,-5.0149,-5.0159,-5.0147,-5.0108,-5.0107,-5.0106,-5.0104,0,-5.0153,-5.0116,-5.0195,-5.0175,-5.0172,-5.0233,-5.0217,-5.0261,-5.0237,-5.0294,-5.0305,-5.0269,-5.031,-5.0272,-5.0311,-5.029,-5.0393,-5.0367,-5.0392,-5.0385,-5.0469,-5.0462,-5.0747,-5.0782,-5.0512,-5.0514,-5.0516,0,-5.028,-5.0335,-5.0322,-5.0347,-5.0347,-5.0388,-5.0407,-5.0356,-5.0379,-5.0387,-5.043,-5.0466,-5.0491,-5.0562,-5.054,-5.0571,-5.0545,-5.0643,-5.0549,-5.0564,-5.0547,-5.0545,-5.055,-5.0662,-5.0665,-5.0668,-5.067,0,-5.0509,-5.0489,-5.0519,-5.0544,-5.0569,-5.0586,-5.0598,-5.0622,-5.057,-5.06,-5.0641,-5.0662,-5.0703,-5.074,-5.0764,-5.076,-5.0708,-5.07,-5.0721,-5.0737,-5.0749,-5.0744,-5.0444,-5.0693,-5.0691,-5.0689,-5.0688,-5.0687,-5.0682,-5.0727,-5.0726,-5.0762,-5.0766,-5.0779,-5.082,-5.0802,-5.0835,-5.0864,-5.0832,-5.0884,-5.0886,-5.0912,-5.0916,-5.0956,-5.0915,-5.0945,-5.0953,-5.0961,-5.0973,-5.0743,-5.096,-5.096,-5.0959,-5.0958,-5.0958,0,-5.0907,-5.0903,-5.0937,-5.0956,-5.0986,-5.0933,-5.0944,-5.0972,-5.1018,-5.1024,-5.1051,-5.11,-5.1136,-5.1118,-5.1149,-5.1185,-5.1162,-5.1195,-5.1192,-5.1193,-5.1008,-5.0987,-5.1214,-5.1214,-5.1214,-5.1214,-5.1214,-5.1214,-5.1028,-5.1103,-5.1083,-5.116,-5.1155,-5.1204,-5.1215,-5.1228,-5.1233,-5.129,-5.1319,-5.1307,-5.1304,-5.1335,-5.1366,-5.136,-5.1375,-5.1418,-5.1403,-5.1231,-5.1205,-5.1181,-5.1162,-5.1421,-5.1422,-5.1584,-5.1586,-5.1587]},{"header":{"parameterUnit":"m.s-1","parameterCategory":1,"la1":30.2991,"la2":30.254,"lo1":-89.0895,"lo2":-89.0444,"dy":0.0017,"dx":0.0017,"nx":28,"ny":28,"refTime":"2023-11-02T03:00:00:Z","depth":0,"parameterNumber":3,"parameterNumberName":"V-component_of_WINDS"},"data":[0,0,0,0,0,0,0,0,0,0,0,0,0,0,0,0,0,0,0,0,0,0,0,0,0,0,0,0,0,0,0,0,0,0,0,0,0,0,0,0,0,0,0,0,0,0,0,0,0,0,0,0,0,0,0,0,0,0,-0.5825,-0.5825,0,-0.5849,-0.5849,-0.5849,-0.5823,-0.5822,-0.5821,-0.582,-0.5848,-0.585,-0.5851,0,0,0,0,0,0,0,0,0,0,0,0,0,-0.5756,-0.5758,-0.5825,-0.5825,-0.5825,-0.5849,-0.5849,-0.5849,-0.5823,-0.5822,-0.582,-0.5819,-0.5847,-0.5849,-0.5851,0,0,0,0,0,0,0,0,0,0,0,0,0,-0.5784,-0.5758,-0.5825,-0.5815,-0.5814,-0.5849,-0.5849,-0.585,-0.5823,-0.5822,-0.582,-0.5819,-0.5847,-0.5849,-0.5852,-0.5898,0,0,-0.586,-0.5861,0,0,0,0,0,0,0,0,-0.5783,-0.5787,-0.5816,-0.5815,-0.5815,-0.5831,-0.5835,-0.5866,-0.5823,-0.582,-0.582,-0.5818,-0.5844,-0.5846,-0.5855,-0.59,-0.5901,-0.586,-0.5861,-0.5862,-0.5863,0,0,0,0,0,0,0,-0.5781,-0.5785,-0.5834,-0.5816,-0.5816,-0.5809,-0.5812,-0.5841,-0.584,-0.582,-0.5818,-0.5821,-0.5843,-0.5852,-0.5855,-0.5901,-0.586,-0.5862,-0.5864,-0.5865,-0.5984,-0.5986,0,0,0,0,0,0,-0.578,-0.5784,-0.5833,-0.5835,-0.5794,-0.5812,-0.5814,-0.5827,-0.584,-0.584,-0.5822,-0.582,-0.5848,-0.5852,-0.5856,-0.5911,-0.5862,-0.5865,-0.5866,-0.5983,-0.5985,-0.5987,0,0,0,0,0,0,-0.5778,-0.5784,-0.5833,-0.5809,-0.5815,-0.5815,-0.583,-0.5829,-0.5838,-0.5842,-0.5842,-0.5832,-0.5847,-0.5852,-0.5887,-0.5911,-0.5866,-0.5868,-0.5981,-0.5983,-0.5986,-0.6021,0,0,0,0,0,0,-0.5776,-0.5784,-0.5802,-0.5809,-0.5816,-0.5863,-0.5831,-0.583,-0.5842,-0.5839,-0.585,-0.5851,-0.5847,-0.5884,-0.589,-0.5914,-0.587,-0.5979,-0.5982,-0.5985,-0.6018,-0.6025,-0.603,0,0,0,0,0,-0.5774,-0.5812,-0.5803,-0.5809,-0.5838,-0.5865,-0.5869,-0.5862,-0.5844,-0.5862,-0.5864,-0.585,-0.5907,-0.5888,-0.5894,-0.592,-0.5977,-0.5981,-0.5985,-0.6015,-0.6023,-0.603,0,0,0,0,0,0,-0.5809,-0.5813,-0.5803,-0.5844,-0.5854,-0.586,-0.5883,-0.5871,-0.5888,-0.5884,-0.5876,-0.5879,-0.5916,-0.5921,-0.5899,-0.5965,-0.5939,-0.5945,-0.596,-0.5968,-0.5974,-0.5973,-0.5872,0,0,0,0,0,-0.5821,-0.5841,-0.5844,-0.588,-0.5886,-0.5883,-0.5895,-0.5888,-0.5899,-0.5904,-0.5909,-0.592,-0.594,-0.5954,-0.5973,-0.6018,-0.602,-0.6038,-0.6045,-0.605,-0.6055,-0.6078,-0.6086,-0.5999,-0.5999,-0.5999,0,0,-0.5847,-0.5851,-0.5866,-0.5887,-0.5895,-0.5917,-0.5887,-0.5912,-0.5929,-0.5908,-0.5941,-0.5945,-0.5957,-0.5997,-0.6015,-0.6002,-0.6079,-0.6054,-0.6058,-0.6061,-0.6082,-0.6091,-0.6098,-0.6001,-0.6001,-0.6,0,0,-0.5906,-0.5911,-0.5941,-0.5948,-0.5958,-0.5956,-0.5963,-0.597,-0.5972,-0.6004,-0.5989,-0.6008,-0.6043,-0.6052,-0.6062,-0.612,-0.6109,-0.6127,-0.616,-0.6182,-0.6189,-0.6195,-0.6216,-0.6224,-0.6131,-0.6132,-0.6132,0,-0.5937,-0.5969,-0.5959,-0.5984,-0.5994,-0.5974,-0.6004,-0.6012,-0.6028,-0.6036,-0.6021,-0.6063,-0.607,-0.6111,-0.6125,-0.6134,-0.6142,-0.6126,-0.6189,-0.6195,-0.62,-0.622,-0.6228,-0.6134,-0.6133,-0.6133,-0.6133,0,-0.6007,-0.6029,-0.6052,-0.6067,-0.6079,-0.6107,-0.6101,-0.6115,-0.6106,-0.6106,-0.6138,-0.6145,-0.6165,-0.6174,-0.6167,-0.6214,-0.6205,-0.619,-0.6165,-0.6211,-0.623,-0.6237,-0.6137,-0.6136,-0.6135,-0.6135,0,0,-0.6091,-0.6097,-0.6106,-0.6111,-0.612,-0.6137,-0.6163,-0.6181,-0.6193,-0.6204,-0.6226,-0.6255,-0.624,-0.625,-0.6244,-0.6263,-0.6309,-0.6245,-0.6245,-0.6257,-0.636,-0.6373,-0.6382,-0.63,-0.6302,-0.6303,-0.6359,0,-0.615,-0.6195,-0.6185,-0.623,-0.625,-0.6229,-0.6252,-0.626,-0.6259,-0.6276,-0.6275,-0.6296,-0.6274,-0.628,-0.6299,-0.63,-0.633,-0.6295,-0.6322,-0.6323,-0.632,-0.6391,-0.6405,-0.6459,-0.6367,-0.6368,-0.6369,0,-0.6226,-0.6238,-0.6284,-0.6287,-0.6295,-0.6316,-0.633,-0.6346,-0.6354,-0.6352,-0.6362,-0.6351,-0.6377,-0.635,-0.6386,-0.6363,-0.6372,-0.6374,-0.6376,-0.6379,-0.635,-0.6398,-0.6475,-0.6484,-0.638,-0.6379,-0.6378,0,-0.6283,-0.6311,-0.6341,-0.6346,-0.6351,-0.6366,-0.6369,-0.6375,-0.6385,-0.6397,-0.6404,-0.642,-0.6429,-0.6441,-0.6435,-0.6415,-0.6472,-0.6444,-0.6471,-0.6472,-0.6486,-0.6485,-0.6567,-0.649,-0.649,-0.649,-0.649,0,-0.6351,-0.638,-0.6367,-0.6386,-0.6417,-0.6405,-0.6437,-0.6437,-0.6442,-0.6461,-0.6444,-0.6462,-0.6452,-0.6469,-0.6464,-0.6495,-0.6499,-0.6498,-0.6497,-0.65,-0.65,-0.6508,-0.6504,-0.6492,-0.6492,-0.6491,-0.6491,0,-0.6421,-0.6413,-0.6445,-0.6445,-0.6446,-0.6469,-0.647,-0.6488,-0.6484,-0.6508,-0.6513,-0.6508,-0.6528,-0.6522,-0.6543,-0.654,-0.6578,-0.6572,-0.6575,-0.6574,-0.6602,-0.6599,-0.6692,-0.6704,-0.6619,-0.662,-0.662,0,-0.6465,-0.6487,-0.6488,-0.6499,-0.6502,-0.652,-0.653,-0.6518,-0.6529,-0.6538,-0.6554,-0.6571,-0.6585,-0.6617,-0.6616,-0.6632,-0.6626,-0.6657,-0.6628,-0.6631,-0.6627,-0.6626,-0.6628,-0.6663,-0.6664,-0.6665,-0.6666,0,-0.6545,-0.6539,-0.6553,-0.6566,-0.6577,-0.6587,-0.6595,-0.6604,-0.6593,-0.6606,-0.6624,-0.6634,-0.6655,-0.6672,-0.6686,-0.6689,-0.6676,-0.6674,-0.6682,-0.6686,-0.6688,-0.6688,-0.6592,-0.6673,-0.6672,-0.6672,-0.6671,-0.6671,-0.6604,-0.6621,-0.6625,-0.6641,-0.6645,-0.6652,-0.6668,-0.6665,-0.668,-0.6695,-0.6687,-0.6708,-0.6714,-0.673,-0.6735,-0.6752,-0.674,-0.6751,-0.6754,-0.6757,-0.676,-0.6684,-0.6755,-0.6754,-0.6754,-0.6754,-0.6754,0,-0.6683,-0.6683,-0.6698,-0.6708,-0.672,-0.6704,-0.6711,-0.6723,-0.6742,-0.6747,-0.676,-0.678,-0.6797,-0.6795,-0.681,-0.6824,-0.6818,-0.6829,-0.6828,-0.6829,-0.677,-0.6762,-0.6833,-0.6833,-0.6833,-0.6833,-0.6833,-0.6833,-0.6726,-0.6754,-0.6748,-0.6778,-0.6779,-0.6798,-0.6804,-0.681,-0.6814,-0.6838,-0.685,-0.6849,-0.6851,-0.6866,-0.688,-0.6879,-0.6886,-0.6899,-0.6896,-0.6841,-0.6833,-0.6826,-0.6819,-0.69,-0.69,-0.6953,-0.6954,-0.6954]}]]